• en France
  • Liste des pays
  • À 7 jours
  • Température de l'eau
  • Carte satellitaire
  • Carte météo
  • Widgets météo
  • user-avatar
    Se connecter

    Météo par heure à Maurice

    Ce jour, 19 Janvier, Vendredi

    Heure Température Précipitation Vent Pression Humidité
    00:00 +26°C° 0,5 mm 10 m/s 714 mmHg 85%
    01:00 +26°C° 0,5 mm 10 m/s 714 mmHg 85%
    02:00 +26°C° 0,3 mm 10 m/s 715 mmHg 85%
    03:00 +26°C° 0,3 mm 9 m/s 715 mmHg 85%
    04:00 +26°C° 0 mm 8 m/s 715 mmHg 85%
    05:00 +26°C° 0,1 mm 8 m/s 715 mmHg 85%
    06:00 +26°C° 0,1 mm 8 m/s 716 mmHg 85%
    07:00 +26°C° 0,1 mm 8 m/s 716 mmHg 84%
    08:00 +27°C° 0,2 mm 7 m/s 717 mmHg 82%
    09:00 +27°C° 0,2 mm 7 m/s 717 mmHg 80%
    10:00 +28°C° 0 mm 5 m/s 717 mmHg 77%
    11:00 +28°C° 0,6 mm 5 m/s 717 mmHg 76%
    12:00 +28°C° 0,6 mm 6 m/s 717 mmHg 76%
    13:00 +28°C° 0,6 mm 6 m/s 717 mmHg 75%
    14:00 +28°C° 0,3 mm 5 m/s 717 mmHg 75%
    15:00 +28°C° 0,3 mm 5 m/s 717 mmHg 76%
    16:00 +28°C° 0,3 mm 5 m/s 717 mmHg 76%
    17:00 +28°C° 0,2 mm 4 m/s 718 mmHg 78%
    18:00 +27°C° 0,2 mm 4 m/s 718 mmHg 81%
    19:00 +27°C° 0,2 mm 4 m/s 718 mmHg 83%
    20:00 +27°C° 0,3 mm 4 m/s 719 mmHg 84%
    21:00 +26°C° 0,3 mm 4 m/s 719 mmHg 84%
    22:00 +26°C° 0,3 mm 3 m/s 720 mmHg 85%
    23:00 +26°C° 0,5 mm 3 m/s 720 mmHg 85%

    Demain, 20 Janvier, Samedi

    Heure Température Précipitation Vent Pression Humidité
    00:00 +26°C° 0,5 mm 3 m/s 720 mmHg 85%
    01:00 +26°C° 0,5 mm 3 m/s 720 mmHg 86%
    02:00 +26°C° 0,2 mm 3 m/s 720 mmHg 86%
    03:00 +26°C° 0,2 mm 3 m/s 720 mmHg 87%
    04:00 +26°C° 0,2 mm 2 m/s 720 mmHg 87%
    05:00 +26°C° 0 mm 2 m/s 720 mmHg 87%
    06:00 +26°C° 0 mm 2 m/s 720 mmHg 86%
    07:00 +26°C° 0 mm 2 m/s 720 mmHg 86%
    08:00 +27°C° 0 mm 2 m/s 721 mmHg 82%
    09:00 +27°C° 0 mm 2 m/s 721 mmHg 78%
    10:00 +28°C° 0 mm 2 m/s 721 mmHg 75%
    11:00 +28°C° 0,1 mm 2 m/s 721 mmHg 74%
    12:00 +28°C° 0,1 mm 2 m/s 721 mmHg 72%
    13:00 +29°C° 0,1 mm 2 m/s 720 mmHg 71%
    14:00 +28°C° 0,2 mm 2 m/s 720 mmHg 73%
    15:00 +28°C° 0,2 mm 2 m/s 720 mmHg 74%
    16:00 +28°C° 0,2 mm 2 m/s 720 mmHg 75%
    17:00 +27°C° 0,3 mm 2 m/s 720 mmHg 77%
    18:00 +27°C° 0,3 mm 2 m/s 720 mmHg 79%
    19:00 +26°C° 0,3 mm 2 m/s 720 mmHg 81%
    20:00 +26°C° 0,2 mm 2 m/s 720 mmHg 82%
    21:00 +26°C° 0,2 mm 2 m/s 721 mmHg 83%
    22:00 +26°C° 0,2 mm 2 m/s 721 mmHg 84%
    23:00 +26°C° 0,3 mm 2 m/s 721 mmHg 85%

    Après-demain, 21 Janvier, Dimanche

    Heure Température Précipitation Vent Pression Humidité
    00:00 +26°C° 0,3 mm 2 m/s 720 mmHg 85%
    01:00 +25°C° 0,3 mm 2 m/s 720 mmHg 86%
    02:00 +25°C° 0,4 mm 2 m/s 720 mmHg 86%
    03:00 +25°C° 0,4 mm 2 m/s 719 mmHg 86%
    04:00 +25°C° 0,4 mm 2 m/s 719 mmHg 87%
    05:00 +25°C° 0 mm 2 m/s 719 mmHg 87%
    06:00 +25°C° 0 mm 2 m/s 720 mmHg 86%
    07:00 +26°C° 0 mm 2 m/s 720 mmHg 86%
    08:00 +26°C° 0 mm 2 m/s 720 mmHg 82%
    09:00 +27°C° 0 mm 2 m/s 720 mmHg 78%
    10:00 +28°C° 0 mm 1 m/s 720 mmHg 73%
    11:00 +28°C° 0,3 mm 1 m/s 720 mmHg 74%
    12:00 +28°C° 0,3 mm 2 m/s 720 mmHg 74%
    13:00 +28°C° 0,3 mm 2 m/s 720 mmHg 74%
    14:00 +28°C° 0,7 mm 2 m/s 719 mmHg 75%
    15:00 +28°C° 0,7 mm 2 m/s 719 mmHg 76%
    16:00 +28°C° 0,7 mm 2 m/s 719 mmHg 77%
    17:00 +27°C° 0,4 mm 2 m/s 719 mmHg 79%
    18:00 +27°C° 0,4 mm 2 m/s 719 mmHg 80%
    19:00 +26°C° 0,4 mm 2 m/s 719 mmHg 82%
    20:00 +26°C° 0 mm 3 m/s 719 mmHg 83%
    21:00 +26°C° 0 mm 3 m/s 720 mmHg 84%
    22:00 +26°C° 0 mm 3 m/s 720 mmHg 85%
    23:00 +26°C° 0 mm 3 m/s 720 mmHg 86%

    22 Janvier, Lundi

    Heure Température Précipitation Vent Pression Humidité
    00:00 +26°C° 0 mm 3 m/s 719 mmHg 86%
    01:00 +25°C° 0 mm 3 m/s 719 mmHg 86%
    02:00 +25°C° 0,2 mm 3 m/s 718 mmHg 86%
    03:00 +25°C° 0,2 mm 3 m/s 718 mmHg 87%
    04:00 +25°C° 0,2 mm 3 m/s 718 mmHg 87%
    05:00 +25°C° 0,1 mm 3 m/s 718 mmHg 87%
    06:00 +25°C° 0,1 mm 3 m/s 719 mmHg 86%
    07:00 +25°C° 0,1 mm 3 m/s 719 mmHg 86%
    08:00 +26°C° 0,1 mm 3 m/s 719 mmHg 83%
    09:00 +27°C° 0,1 mm 3 m/s 719 mmHg 80%
    10:00 +28°C° 0,1 mm 4 m/s 720 mmHg 77%
    11:00 +28°C° 0,3 mm 3 m/s 719 mmHg 76%
    12:00 +28°C° 0,3 mm 3 m/s 719 mmHg 75%
    13:00 +29°C° 0,3 mm 3 m/s 719 mmHg 74%
    14:00 +28°C° 1,4 mm 3 m/s 718 mmHg 75%
    15:00 +28°C° 1,4 mm 3 m/s 718 mmHg 76%
    16:00 +28°C° 1,4 mm 3 m/s 718 mmHg 77%
    17:00 +27°C° 1,8 mm 2 m/s 718 mmHg 78%
    18:00 +27°C° 1,8 mm 2 m/s 718 mmHg 80%
    19:00 +26°C° 1,8 mm 2 m/s 719 mmHg 82%
    20:00 +26°C° 0,6 mm 2 m/s 719 mmHg 83%
    21:00 +26°C° 0,6 mm 3 m/s 719 mmHg 84%
    22:00 +26°C° 0,6 mm 3 m/s 720 mmHg 85%
    23:00 +26°C° 0,4 mm 3 m/s 719 mmHg 86%

    23 Janvier, Mardi

    Heure Température Précipitation Vent Pression Humidité
    00:00 +26°C° 0,4 mm 3 m/s 719 mmHg 87%
    01:00 +25°C° 0,4 mm 3 m/s 719 mmHg 89%
    02:00 +25°C° 0,7 mm 3 m/s 718 mmHg 88%
    03:00 +25°C° 0,7 mm 3 m/s 718 mmHg 88%
    04:00 +25°C° 0,7 mm 3 m/s 718 mmHg 88%
    05:00 +25°C° 0,4 mm 3 m/s 718 mmHg 88%
    06:00 +25°C° 0,4 mm 4 m/s 719 mmHg 87%
    07:00 +26°C° 0,4 mm 4 m/s 719 mmHg 87%
    08:00 +26°C° 0,1 mm 4 m/s 719 mmHg 84%
    09:00 +27°C° 0,1 mm 4 m/s 720 mmHg 82%
    10:00 +27°C° 0,1 mm 4 m/s 720 mmHg 80%
    11:00 +28°C° 0,6 mm 4 m/s 719 mmHg 79%
    12:00 +28°C° 0,6 mm 4 m/s 719 mmHg 78%
    13:00 +28°C° 0,6 mm 4 m/s 719 mmHg 77%
    14:00 +28°C° 1,2 mm 4 m/s 718 mmHg 78%
    15:00 +28°C° 1,2 mm 4 m/s 718 mmHg 78%
    16:00 +27°C° 1,2 mm 4 m/s 718 mmHg 79%
    17:00 +27°C° 1,2 mm 4 m/s 718 mmHg 80%
    18:00 +26°C° 1,2 mm 4 m/s 719 mmHg 82%
    19:00 +26°C° 1,2 mm 3 m/s 719 mmHg 84%
    20:00 +26°C° 0,5 mm 4 m/s 719 mmHg 85%
    21:00 +26°C° 0,5 mm 4 m/s 720 mmHg 85%
    22:00 +26°C° 0,5 mm 4 m/s 720 mmHg 86%
    23:00 +26°C° 0,4 mm 4 m/s 720 mmHg 87%

    24 Janvier, Mercredi

    Heure Température Précipitation Vent Pression Humidité
    00:00 +26°C° 0,4 mm 5 m/s 720 mmHg 88%
    01:00 +25°C° 0,4 mm 5 m/s 719 mmHg 88%
    02:00 +25°C° 0,2 mm 5 m/s 719 mmHg 88%
    03:00 +25°C° 0,2 mm 5 m/s 719 mmHg 88%
    04:00 +25°C° 0,2 mm 5 m/s 719 mmHg 88%
    05:00 +25°C° 0 mm 5 m/s 719 mmHg 88%
    06:00 +26°C° 0 mm 5 m/s 720 mmHg 87%
    07:00 +26°C° 0 mm 5 m/s 720 mmHg 87%
    08:00 +26°C° 0 mm 5 m/s 720 mmHg 84%
    09:00 +27°C° 0 mm 5 m/s 720 mmHg 81%
    10:00 +28°C° 0 mm 5 m/s 720 mmHg 79%
    11:00 +28°C° 0,2 mm 5 m/s 720 mmHg 78%
    12:00 +28°C° 0,2 mm 5 m/s 720 mmHg 77%
    13:00 +28°C° 0,2 mm 5 m/s 719 mmHg 76%
    14:00 +28°C° 0,3 mm 5 m/s 719 mmHg 76%
    15:00 +28°C° 0,3 mm 5 m/s 719 mmHg 77%
    16:00 +28°C° 0,3 mm 5 m/s 719 mmHg 77%
    17:00 +27°C° 0,3 mm 5 m/s 719 mmHg 80%
    18:00 +27°C° 0,3 mm 5 m/s 719 mmHg 82%
    19:00 +26°C° 0,3 mm 5 m/s 720 mmHg 84%
    20:00 +26°C° 0,2 mm 5 m/s 720 mmHg 85%
    21:00 +26°C° 0,2 mm 5 m/s 720 mmHg 86%
    22:00 +26°C° 0,2 mm 5 m/s 721 mmHg 87%
    23:00 +26°C° 0,1 mm 5 m/s 720 mmHg 87%
    Voir plus